Showing default

IRIDIUM 119, 42959

Orbit data source: Space-Track

IRIDIUM 119, 42959 is a payload satellite owned by Iridium (US) in LEO that was launched on Mon, 09 Oct 2017 UTC via an FALCON 9 launch vehicle from the Air Force Western Test Range (AFWTR). Payload-class satellites include a variety of spacecraft equipped with specific instruments for various scientific and technological missions. These include communications satellites like Starlink; space stations such as the ISS; scientific satellites like the Hubble; Earth observation satellites from companies like Planet Labs, Umbra, and HawkEye 360; GPS; miniature CubeSats for education and research; and military/defense satellites.

Loading next visibility...
Identifier
42959, 2017-061E
Orbit
LEO
Country
Flag of USUS
Related business
Manufacturer
OATK SSG Gilbert
Mission
Operational Commercial Communications
Bus & Motor
ELITEBUS, Unknown motor
Mass
860 kg wet, 700 kg dry
Launch date (UTC)
2017-10-09 (8 years ago)
Launch vehicle
FALCON 9
Launch site
Air Force Western Test Range (AFWTR)
Object type
Payload
Rocket body
Debris
Shape & HBR
Trap Box + 2 Pan, 4.7 m
Radar Cross Section
14.423 m², Large (>1 m²)

Expand to show TLE details & history
Last TLE update: 13 hours ago

TLE from 13 hours ago
0 IRIDIUM 119
1 42959U 17061E   25258.72711455  .00000012  00000-0 -28750-5 0  9999
2 42959  86.4001 140.0057 0002021  92.6445 267.4982 14.34217658415472
Epoch: 2025-09-15T17:27Z
TLE epoch observation values (Epoch: 2025-09-15T17:27:02.697Z)
Latitude
-0.00002°
Longitude
-116.68316°
Altitude
780.782 km
Speed
7.463 km/s
True Right ascension
09h 20m 01s
True Declination
0° 00' 00"
Sunlit
Object was in daylight at epoch
Visualization orbit readout
Latitude
Unknown
Longitude
Unknown
Altitude
Unknown
Speed
Unknown
Apparent Right ascension
Unknown
Apparent Declination
Unknown
Sunlit
N/A
Visualization observer readout
Local Sidereal Time
23:04:28
Azimuth
Unknown
Elevation
Unknown
Doppler factor
Unknown
Orbital elements
Apogee altitude
776.077 km
Perigee altitude
773.186 km
Semi-major axis
7,152.769 km
Eccentricity
0.0002
Inclination
86.4001°
RAAN
140.0057°
Arg. of periapsis
92.6445°
True anomaly
267.47506°
Mean anomaly
267.4982°
Eccentric anomaly
267.48663°
Mean motion
3.58783 °/min
Orbital period
100.34 mins
BSTAR
-0.000002875
Loading maneuver chart data...
Computing Atmospheric mass density...
Loading historical data...
Loading historical data...
Loading historical data...
Loading historical data...
Loading historical data...
Loading historical data...
Loading historical data...

Documentation

Showing up to 5 results
|